Location: Berg
(48.5667°N, 13.9833°E)
Time: 17:46:45
(UTC+00:00)

Okean 3 Rocket - Pass Details

Date: 09 April 2020
Orbit: 616 x 644 km, 82.5° (Epoch: 22 May)

Event Time Altitude Azimuth Distance (km) Brightness Sun altitude
Rises 20:48:10 0° 346° (NNW) 2,914 8.0 -25.9°
Reaches altitude 10° 20:50:25 10° 342° (NNW) 2,007 7.1 -26.1°
Enters shadow 20:54:36 55° 275° (W) 755 4.1 -26.6°
